Regional Weather Roundup
Issued by NWS Lake Charles, LA

Home | Current Version | Previous Version | Text Only | Print | Product List | Glossary On
Versions: 1 2 3 4 5 6 7 8 9 10 11 12 13 14 15 16 17 18 19 20 21 22 23 24 25 26 27 28 29 30 31 32 33 34 35 36 37 38 39 40 41 42 43 44 45 46 47 48 49 50
000
ASUS44 KLCH 311910
RWRLCH
RWRLCH
REGIONAL WEATHER ROUNDUP
NATIONAL WEATHER SERVICE LAKE CHARLES LA
200 PM CDT THU JUL 31 2014

Note: "fair" indicates few or no clouds below 12,000 feet with no
significant weather and/or obstructions to visibility.


ACROSS SOUTHEAST TEXAS

CITY           SKY/WX    TMP DP  RH WIND       PRES   REMARKS
BEAUMONT       PTSUNNY   90  74  59 MISG      29.98F
BEAUMONT CITY    N/A     90  73  57 SW5       29.99F
ORANGE         PTCLDY    89  72  56 S5        30.00F
JASPER         PTSUNNY   84  73  70 SE5       30.02F
$$

ACROSS CENTRAL LOUISIANA

CITY           SKY/WX    TMP DP  RH WIND       PRES   REMARKS
LEESVILLE      CLOUDY    83  70  64 SE6       30.02F
FULLERTON        N/A     83  68  60 VRB3      30.00F
ALEXANDRIA INT CLOUDY    82  66  58 SE3       30.01F
ESLER FIELD    CLOUDY    82  69  64 CALM      30.04F
DERIDDER         N/A     84  72  66 CALM      30.04F
OAKDALE        MOCLDY    85  71  61 SE5       30.02F
OPELOUSAS      MOCLDY    86  69  56 E3        30.02F
$$

ACROSS SOUTHWEST AND SOUTH CENTRAL LOUISIANA

CITY           SKY/WX    TMP DP  RH WIND       PRES   REMARKS
SULPHUR        MOCLDY    89  71  55 SE5       30.01F
LAKE CHARLES   PTSUNNY   89  73  59 SE8       30.00F
CHENNAULT INT  NOT AVBL
CAMERON PHI    CLEAR     86  73  66 S8        30.01F
DEQUINCY         N/A     86  73  65 SE5       30.00F
JENNINGS       MOCLDY    85  70  60 CALM      30.01F
LAFAYETTE      PTSUNNY   86  69  56 CALM      30.02F
NEW IBERIA     PTSUNNY   90  69  50 E7        30.02F
ABBEVILLE        N/A     87  70  56 SE6       30.02F
PATTERSON      PTSUNNY   90  75  62 SE6       30.06F HX 100
SALT POINT       N/A     88  74  63 VRB3      30.01F
$$

SELECTED SITES ACROSS THE REGION

CITY           SKY/WX    TMP DP  RH WIND       PRES   REMARKS
HOUSTON BUSH   PTSUNNY   90  72  55 SW5       29.97F
HOUSTON HOBBY  PTSUNNY   93  72  50 S6        29.96F HX 101
GALVESTON      MOSUNNY   90  75  61 S13       29.99F HX 100
COLLEGE STAT   PTSUNNY   88  72  58 SW7       29.97F
CONROE         RAIN      84  76  76 CALM      29.99F
HUNTSVILLE     PTSUNNY   89  73  59 SW8       29.98F
LUFKIN         LGT RAIN  85  74  69 E7        29.98F
SHREVEPORT     CLOUDY    74  69  85 SE3       30.01F
MONROE         CLOUDY    77  64  64 E3        30.06F
NATCHEZ MS     CLOUDY    79  64  61 CALM      30.06F
BATON ROUGE    MOSUNNY   87  66  49 E7        30.02F
N.O. INTL ARPT PTSUNNY   86  64  47 NE10      30.03F
SLIDELL        MOSUNNY   86  60  41 NE6       30.03F
$$

MARINE REPORTS

STATION/POSITION TIME  TEMP    WIND        PRES    VSBY  WAVE
                       AIR SEA DIR/SP/G                  HT/PER
                 (UTC) (F)     (DEG/KT/KT) (MB)    (MI)  (FT/S)
BUOY 30 S HIGH I NOT AVBL
SEA RIM ST PARK  1900   85     190/  7/  9 1016.1F
PORT ARTHUR      1900      87  150/  4/  6 1015.8S
SABINE PASS N    1900   86 86  220/  7/ 11 1015.8F
TEXAS POINT      1900   84 86  160/  7/  9 1015.9F
CALCASIEU PASS   1900   84 87  200/  8/  9 1017.2F
LK CHARLES BEACH 1900   87 85              1016.6F
MARSH ISLAND     1800   83     100/  5/  6   N/A
FRESH WATER LOCK 1900   84 87  110/  7/ 11 1016.4F
AMERADA PASS     1900   85 85  200/  2/  3 1016.7F
$$



USA.gov is the U.S. government's official web portal to all federal, state and local government web resources and services.